Theta_e
322 322 322 322 322 323 323 322 322 323 323 322 322 323 323 324 324 326 325 325 325 325 325 324 324 324 324 323 323 323 323 322 322 323 323 323 322 322 321 321 321 321
323 322 322 323 323 323 322 322 322 322 323 323 323 323 324 324 324 325 325 324 323 324 324 324 323 324 324 324 322 323 322 322 322 323 322 321 321 321 321 321 321 321
320 320 321 320 321 321 322 322 323 322 322 322 322 322 323 324 324 324 325 324 324 322 322 322 323 323 323 324 324 323 322 321 321 321 321 321 321 320 320 320 320 320
315 319 320 320 320 321 322 322 321 321 320 321 320 321 323 322 322 321 322 320 323 323 323 321 320 323 324 324 324 323 322 322 322 321 320 320 320 320 320 319 318 318
315 316 317 318 318 318 319 320 319 319 318 317 318 317 320 320 319 318 319 320 320 320 323 323 323 323 323 323 322 321 321 321 321 321 320 319 319 319 319 319 318 317
310 311 312 313 313 315 314 314 313 314 314 313 312 313 314 316 316 317 319 322 322 321 321 322 322 322 322 321 321 321 320 320 320 320 318 317 317 317 319 318 318 316
308 309 310 311 312 310 309 309 309 310 311 312 312 312 312 312 312 314 316 316 318 316 317 317 319 319 320 320 319 319 318 318 317 317 317 315 315 316 317 317 315 315
306 307 309 309 307 306 306 307 308 309 309 308 308 309 311 311 312 312 312 311 310 311 312 314 315 315 316 318 317 317 317 318 317 316 315 315 314 314 314 314 314 313
304 304 305 305 304 305 305 306 307 307 308 307 306 306 308 310 310 309 309 308 308 309 310 310 311 311 311 313 314 315 314 313 314 313 312 311 310 310 311 311 311 309
303 304 304 304 303 303 303 304 305 306 306 306 305 306 306 306 307 307 306 306 306 306 307 307 307 307 308 309 310 310 310 310 309 309 309 308 307 307 308 308 307 306
299 301 301 302 302 302 302 303 303 304 305 305 305 304 304 304 304 304 304 304 304 304 304 304 305 306 306 307 308 308 309 309 308 306 305 304 304 304 301 304 304 302
296 296 297 297 297 297 298 299 299 300 301 302 303 303 302 301 301 301 301 300 300 300 301 301 302 303 303 303 304 304 304 303 302 300 299 298 298 298 298 297 296 295
294 294 294 294 294 295 295 296 296 296 297 298 298 298 298 297 297 297 296 296 295 295 294 295 295 295 297 298 297 297 297 297 296 296 295 295 294 294 294 293 292 292
291 292 292 293 294 294 294 294 294 294 295 295 295 295 295 295 295 294 293 292 291 291 290 290 290 291 292 294 295 294 294 294 294 293 293 292 292 292 292 291 290 290
291 291 292 292 292 293 293 293 293 293 292 292 292 292 293 292 292 291 290 289 289 289 288 289 289 289 290 291 293 293 293 293 293 292 291 290 290 290 290 291 290 290
291 290 291 291 292 291 291 291 291 290 290 290 290 290 290 290 290 289 288 288 287 287 287 289 289 290 289 292 292 293 292 293 292 291 291 290 289 289 288 288 288 287
290 290 290 290 290 290 290 290 290 289 289 289 289 289 289 289 289 288 287 287 287 286 287 288 289 289 290 292 293 293 291 291 289 289 288 287 286 286 285 285 285 285
288 288 288 288 288 288 288 288 288 288 288 288 288 288 288 288 288 287 287 286 286 285 285 286 287 289 291 292 292 293 291 289 289 288 288 287 286 286 286 285 285 286
287 287 287 287 287 287 288 288 288 288 287 287 287 287 287 287 287 286 285 285 284 284 284 284 285 289 291 291 292 292 293 290 288 288 287 286 285 285 285 285 285 286
287 287 287 287 287 287 287 288 288 287 287 287 287 287 287 286 285 285 284 284 283 283 283 284 285 288 290 291 291 292 292 291 288 287 286 285 284 283 283 283 283 283
287 286 287 287 287 288 288 288 288 287 287 287 286 286 286 286 285 284 284 283 282 282 282 283 285 288 289 290 291 292 292 289 286 286 285 283 283 283 282 282 282 283
286 286 286 286 287 287 287 287 287 287 286 286 287 286 286 286 286 285 284 283 283 282 281 281 283 288 288 289 290 290 289 285 284 284 283 283 283 283 283 283 282 281
286 286 286 286 287 286 286 286 286 286 286 286 286 286 286 285 285 285 285 285 283 282 281 281 282 286 287 288 288 288 286 283 282 282 282 282 282 282 282 282 282 282
286 286 286 286 286 286 286 285 285 286 285 286 285 285 284 284 284 284 284 284 283 283 282 281 281 284 286 287 287 287 285 282 282 281 281 281 281 281 282 282 283 285
286 286 286 286 286 286 286 286 285 285 285 285 285 284 284 283 282 282 282 282 282 281 281 280 280 282 286 286 286 286 284 281 281 281 280 280 280 280 281 282 282 283
284 285 285 285 285 285 285 285 285 285 285 285 284 284 284 283 283 282 282 281 281 280 281 279 279 280 283 285 285 286 285 281 280 280 279 279 280 280 281 281 281 281
Wind_Speed
8 7 7 7 7 7 7 7 7 8 8 7 8 7 8 7 7 9 8 7 7 7 7 6 6 6 6 6 6 6 6 5 4 6 6 6 6 6 6 5 5 6
8 7 7 6 6 6 6 6 5 6 6 6 6 6 6 7 7 8 8 7 6 6 6 6 6 6 6 6 4 5 4 4 3 3 4 5 4 5 4 4 5 5
4 5 6 6 7 6 6 5 5 5 6 5 4 4 4 5 6 6 7 6 6 5 5 5 5 5 6 6 5 4 4 3 3 3 4 4 3 3 2 3 4 5
4 5 5 5 5 5 5 6 4 5 4 4 4 4 5 4 5 5 5 6 5 5 5 4 4 4 4 5 5 5 4 4 3 3 4 3 3 3 3 2 2 2
4 3 3 4 4 4 4 5 4 4 3 3 3 3 5 5 5 4 4 4 3 2 4 5 4 4 4 4 5 5 4 4 3 4 4 3 4 4 4 3 3 4
4 4 4 3 3 4 5 5 4 5 5 5 4 4 4 4 4 3 4 5 3 3 3 4 5 4 5 5 5 5 4 4 4 4 4 3 2 3 3 3 3 3
4 4 5 4 6 7 7 5 5 5 6 5 5 5 5 6 6 6 5 4 5 5 5 5 5 5 4 4 4 4 4 3 3 3 4 2 2 1 1 2 2 2
4 4 4 6 7 6 6 5 4 5 5 6 6 5 5 6 7 5 5 6 6 6 6 6 6 6 5 5 5 4 5 4 4 4 3 2 2 2 5 5 4 5
4 4 5 6 6 5 5 4 4 5 5 6 6 6 5 6 6 5 6 7 7 6 6 6 6 6 5 6 5 5 6 6 5 6 5 5 6 5 4 4 6 6
4 5 6 6 6 5 5 4 4 5 5 6 6 5 6 5 6 6 6 7 7 7 6 6 6 6 6 6 6 6 6 7 6 6 6 6 6 5 4 5 5 5
5 5 6 6 7 6 6 5 5 6 6 7 7 7 7 7 7 6 7 7 7 7 7 7 6 6 7 6 6 6 6 6 7 6 6 6 6 5 5 6 6 6
6 6 6 7 7 6 6 6 6 6 7 6 7 8 7 6 7 6 7 8 7 7 7 7 6 6 6 6 5 5 6 7 7 7 7 6 6 6 6 7 6 6
6 6 6 6 6 6 6 6 7 7 8 8 7 8 9 9 8 10 8 9 9 9 8 7 7 7 7 7 7 7 7 7 8 8 7 7 6 6 7 7 6 5
5 5 5 6 6 6 7 7 7 8 8 8 9 10 9 9 10 11 9 9 8 9 8 7 8 8 7 6 7 7 7 7 6 6 7 7 6 6 6 6 5 5
5 4 5 6 6 7 7 8 8 8 8 8 8 9 8 9 10 10 10 10 9 9 8 8 8 7 5 4 7 8 7 7 7 7 7 7 6 5 5 5 4 4
5 5 6 6 7 8 7 8 8 8 9 10 10 9 9 9 9 9 9 9 9 9 8 8 8 6 10 14 10 7 6 6 7 7 6 5 5 5 5 4 4 4
6 6 6 7 7 8 8 9 9 9 10 10 10 9 10 9 9 10 9 9 9 9 10 9 8 8 14 13 13 11 7 6 6 6 6 6 5 5 5 4 4 3
7 8 9 8 8 9 9 9 9 10 10 10 10 10 9 8 10 9 9 8 9 10 10 8 8 11 13 13 13 13 10 7 6 6 6 5 5 5 5 4 4 4
7 9 9 9 9 9 9 10 10 11 10 10 10 7 8 10 9 10 9 8 9 10 10 8 8 12 13 13 13 12 12 8 7 6 7 6 5 5 5 5 4 5
7 8 9 9 8 9 9 10 11 11 9 8 9 8 10 10 9 10 9 9 9 9 9 9 9 12 13 14 12 12 11 8 5 5 5 5 5 4 4 4 4 4
8 8 9 8 8 9 10 10 10 10 10 8 8 8 9 9 9 10 9 9 9 9 10 10 9 15 13 14 13 12 10 7 5 5 5 4 4 4 3 4 3 4
10 10 10 9 9 9 10 9 9 9 10 8 9 8 8 8 8 8 9 9 8 9 10 10 9 16 15 14 13 12 10 7 6 5 5 5 5 5 5 4 2 3
8 11 11 10 10 10 9 9 9 9 8 7 10 9 9 8 8 7 7 8 9 9 10 9 9 12 15 15 15 13 8 7 6 7 6 6 6 5 5 6 5 4
6 9 11 10 10 11 11 9 8 7 8 7 10 10 10 8 8 9 8 7 8 9 9 9 8 10 14 14 15 15 9 7 6 7 6 7 7 6 6 6 7 11
4 7 9 10 10 9 9 10 9 8 7 8 9 9 10 8 8 9 8 8 8 8 9 9 7 9 13 14 15 15 11 7 7 6 7 6 6 6 6 6 6 7
4 6 7 9 10 9 9 9 8 9 8 9 8 8 8 8 8 8 9 7 7 7 7 7 8 7 9 15 15 15 14 7 6 6 6 6 6 6 7 6 6 6
Wind_Direction
204 199 202 200 208 201 198 197 191 187 190 184 183 188 187 185 170 177 183 185 188 189 192 191 191 194 193 191 196 195 196 200 185 181 181 178 184 181 195 210 212 210
196 194 193 191 191 193 193 181 184 176 180 180 180 172 170 167 169 167 174 179 182 187 184 187 186 188 189 192 188 179 170 144 144 135 151 172 176 179 191 200 217 219
183 186 185 187 186 186 187 179 171 170 164 166 153 146 150 150 156 154 162 167 174 178 178 181 189 184 175 176 168 155 156 146 153 135 132 159 162 183 203 210 221 218
226 205 198 190 177 174 166 151 146 141 132 140 153 152 127 125 126 135 142 155 162 175 182 181 173 168 160 158 150 156 157 152 157 142 152 160 164 165 197 204 234 244
190 171 157 158 148 131 129 135 144 136 124 112 96 96 117 120 108 109 129 139 128 140 155 162 154 137 137 136 139 134 134 140 145 141 147 175 194 181 190 188 222 244
72 83 70 80 97 98 76 75 67 83 89 79 71 64 65 74 95 122 143 140 141 152 128 125 129 122 114 114 118 126 127 136 155 156 160 159 153 168 169 185 217 224
76 73 74 75 71 70 82 70 64 67 72 87 76 53 55 69 68 48 48 70 93 69 64 62 68 73 78 95 94 98 101 99 92 103 108 97 96 85 147 185 205 221
85 78 78 70 71 69 75 74 67 71 81 77 73 54 55 72 70 57 65 75 76 73 69 67 67 63 59 73 89 96 92 89 92 96 97 94 84 58 43 36 52 62
79 84 87 83 84 80 82 81 81 79 77 83 77 68 54 62 70 73 75 78 74 72 71 67 64 64 54 67 62 78 82 68 65 70 77 78 80 71 62 59 66 63
97 101 102 107 105 105 109 106 98 96 97 98 98 93 84 69 73 80 78 79 82 77 76 79 76 74 71 65 71 79 84 88 84 80 79 80 77 67 60 70 72 64
100 103 106 107 111 116 116 116 118 120 116 114 111 101 97 96 89 88 89 86 84 84 81 75 76 80 84 80 76 84 93 93 86 81 75 70 68 63 53 61 62 61
92 92 94 96 95 92 92 91 90 91 100 101 108 107 99 87 89 77 79 81 75 71 69 67 65 72 80 83 80 76 77 76 79 84 78 71 64 58 62 60 67 60
93 96 100 101 100 100 96 92 90 90 90 92 90 93 94 91 83 81 70 77 72 69 64 64 59 52 55 64 67 67 72 76 75 73 71 69 64 66 66 67 67 66
88 96 102 104 104 101 98 96 93 89 90 91 93 90 89 89 89 86 80 76 72 71 62 60 58 51 44 55 68 69 72 73 77 84 83 76 69 67 71 71 69 66
104 98 97 96 97 96 94 93 91 91 88 86 86 87 86 86 87 87 86 80 71 69 66 59 59 52 43 52 75 72 74 74 70 70 75 81 75 67 69 79 73 70
107 104 102 101 97 95 93 92 90 89 87 85 81 82 82 82 83 80 79 82 81 71 67 62 54 47 40 49 52 70 72 72 70 65 65 72 79 73 59 62 84 88
112 109 106 99 101 98 95 93 92 90 89 86 84 82 84 83 85 82 79 76 74 72 64 57 49 40 42 48 50 56 69 75 80 72 65 61 63 69 61 42 42 81
122 117 109 107 104 102 101 101 98 94 91 90 90 88 88 90 85 85 83 78 76 71 66 58 53 39 46 47 50 53 59 67 67 69 65 58 56 56 51 45 30 23
127 121 116 111 110 109 109 106 103 98 97 97 95 99 96 88 88 85 81 78 77 76 69 57 55 38 43 44 45 49 55 64 65 65 63 55 48 47 47 45 31 24
121 116 113 113 114 110 109 105 101 100 101 100 102 95 91 91 88 86 85 79 76 78 73 60 53 37 40 41 41 45 53 59 66 70 73 68 57 49 52 49 43 29
113 108 107 106 105 107 105 103 104 105 101 100 97 97 96 96 96 92 85 81 75 73 71 61 46 40 38 38 36 40 46 56 59 61 63 61 53 49 54 69 66 47
128 122 117 114 111 105 103 103 101 104 107 106 100 94 88 91 84 86 89 85 80 75 73 62 45 41 40 38 32 29 42 44 48 51 53 41 29 30 29 14 49 63
134 127 124 122 120 111 106 105 107 103 99 103 97 92 91 83 85 83 87 93 88 79 77 71 56 43 46 44 41 36 40 40 42 44 41 37 19 12 14 2 352 353
128 125 123 122 120 119 117 113 107 100 100 102 104 103 92 89 89 82 72 73 80 82 81 79 67 48 48 46 45 42 42 43 37 46 38 26 12 1 360 352 336 332
116 113 115 116 113 111 113 112 110 111 111 99 97 98 98 99 92 90 81 69 68 73 73 76 70 52 47 47 45 42 41 36 37 41 36 18 4 348 340 338 333 332
96 103 103 109 112 109 105 105 108 101 96 97 90 93 97 91 88 87 88 84 82 78 75 75 71 55 46 46 43 42 42 43 33 41 26 8 354 345 339 340 342 336